Time,TemperatureF,DewpointF,PressureIn,WindDirection,WindDirectionDegrees,WindSpeedMPH,WindSpeedGustMPH,Humidity,HourlyPrecipIn,Conditions,Clouds,dailyrainin,SoftwareType,DateUTC
2013-06-25 00:08:00,71.1,70.0,30.14,East,82,0.0,0.0,97,0.00,,,0.00,weatherlink.com 1.10,2013-06-25 05:08:00,
2013-06-25 00:24:00,71.0,70.0,30.14,East,82,0.0,1.0,97,0.00,,,0.00,weatherlink.com 1.10,2013-06-25 05:24:00,
2013-06-25 00:38:00,71.0,70.0,30.14,East,85,0.0,1.0,97,0.00,,,0.00,weatherlink.com 1.10,2013-06-25 05:38:00,
2013-06-25 00:53:00,71.0,70.0,30.13,ESE,108,0.0,1.0,97,0.00,,,0.00,weatherlink.com 1.10,2013-06-25 05:53:00,
2013-06-25 01:08:00,70.8,70.0,30.12,East,87,1.0,1.0,97,0.00,,,0.00,weatherlink.com 1.10,2013-06-25 06:08:00,
2013-06-25 01:23:00,70.6,70.0,30.12,ENE,77,0.0,0.0,97,0.00,,,0.00,weatherlink.com 1.10,2013-06-25 06:23:00,
2013-06-25 01:38:00,70.3,69.0,30.12,ENE,77,0.0,0.0,97,0.00,,,0.00,weatherlink.com 1.10,2013-06-25 06:38:00,
2013-06-25 01:54:00,70.5,70.0,30.11,ENE,75,0.0,2.0,98,0.00,,,0.00,weatherlink.com 1.10,2013-06-25 06:54:00,
2013-06-25 02:09:00,70.5,70.0,30.10,East,100,1.0,2.0,98,0.00,,,0.00,weatherlink.com 1.10,2013-06-25 07:09:00,
2013-06-25 02:24:00,70.5,70.0,30.10,East,89,0.0,0.0,98,0.00,,,0.00,weatherlink.com 1.10,2013-06-25 07:24:00,
2013-06-25 02:39:00,70.3,70.0,30.10,East,89,0.0,1.0,98,0.00,,,0.00,weatherlink.com 1.10,2013-06-25 07:39:00,
2013-06-25 02:54:00,70.2,70.0,30.10,East,89,0.0,0.0,98,0.00,,,0.00,weatherlink.com 1.10,2013-06-25 07:54:00,
2013-06-25 03:09:00,70.0,69.0,30.09,East,89,0.0,1.0,98,0.00,,,0.00,weatherlink.com 1.10,2013-06-25 08:09:00,
2013-06-25 03:24:00,70.2,70.0,30.09,ENE,68,3.0,3.0,98,0.00,,,0.00,weatherlink.com 1.10,2013-06-25 08:24:00,
2013-06-25 03:39:00,70.1,70.0,30.09,ENE,77,1.0,1.0,98,0.00,,,0.00,weatherlink.com 1.10,2013-06-25 08:39:00,
2013-06-25 03:54:00,70.2,70.0,30.10,ENE,71,1.0,4.0,98,0.00,,,0.00,weatherlink.com 1.10,2013-06-25 08:54:00,
2013-06-25 04:09:00,69.8,69.0,30.10,ENE,72,0.0,1.0,97,0.00,,,0.00,weatherlink.com 1.10,2013-06-25 09:09:00,
2013-06-25 04:24:00,69.8,69.0,30.11,East,89,1.0,1.0,98,0.00,,,0.00,weatherlink.com 1.10,2013-06-25 09:24:00,
2013-06-25 04:39:00,69.8,69.0,30.11,East,89,0.0,1.0,98,0.00,,,0.00,weatherlink.com 1.10,2013-06-25 09:39:00,
2013-06-25 04:54:00,69.7,69.0,30.11,East,91,0.0,1.0,98,0.00,,,0.00,weatherlink.com 1.10,2013-06-25 09:54:00,
2013-06-25 05:09:00,69.4,69.0,30.11,East,90,0.0,0.0,98,0.00,,,0.00,weatherlink.com 1.10,2013-06-25 10:09:00,
2013-06-25 05:24:00,69.3,69.0,30.11,East,90,0.0,0.0,98,0.00,,,0.00,weatherlink.com 1.10,2013-06-25 10:24:00,
2013-06-25 05:39:00,69.4,69.0,30.11,ENE,77,1.0,1.0,98,0.00,,,0.00,weatherlink.com 1.10,2013-06-25 10:39:00,
2013-06-25 05:54:00,69.3,69.0,30.12,ENE,77,0.0,0.0,98,0.00,,,0.00,weatherlink.com 1.10,2013-06-25 10:54:00,
2013-06-25 06:09:00,69.2,69.0,30.12,ENE,78,0.0,0.0,98,0.00,,,0.00,weatherlink.com 1.10,2013-06-25 11:09:00,
2013-06-25 06:24:00,69.5,69.0,30.13,ENE,77,0.0,0.0,99,0.00,,,0.00,weatherlink.com 1.10,2013-06-25 11:24:00,
2013-06-25 06:39:00,69.7,69.0,30.13,East,81,0.0,0.0,99,0.00,,,0.00,weatherlink.com 1.10,2013-06-25 11:39:00,
2013-06-25 06:54:00,70.0,70.0,30.14,East,81,0.0,0.0,99,0.00,,,0.00,weatherlink.com 1.10,2013-06-25 11:54:00,
2013-06-25 07:09:00,71.0,71.0,30.14,ESE,107,0.0,1.0,99,0.00,,,0.00,weatherlink.com 1.10,2013-06-25 12:09:00,
2013-06-25 07:24:00,72.0,72.0,30.14,ESE,108,1.0,2.0,99,0.00,,,0.00,weatherlink.com 1.10,2013-06-25 12:24:00,
2013-06-25 07:39:00,73.3,72.0,30.15,East,82,2.0,2.0,97,0.00,,,0.00,weatherlink.com 1.10,2013-06-25 12:39:00,
2013-06-25 07:54:00,74.9,73.0,30.15,ESE,111,2.0,3.0,95,0.00,,,0.00,weatherlink.com 1.10,2013-06-25 12:54:00,
2013-06-25 08:09:00,77.1,74.0,30.15,ESE,108,1.0,3.0,91,0.00,,,0.00,weatherlink.com 1.10,2013-06-25 13:09:00,
2013-06-25 08:24:00,78.3,75.0,30.15,ENE,69,4.0,4.0,89,0.00,,,0.00,weatherlink.com 1.10,2013-06-25 13:24:00,
2013-06-25 08:39:00,79.6,76.0,30.15,ESE,111,2.0,4.0,88,0.00,,,0.00,weatherlink.com 1.10,2013-06-25 13:39:00,
2013-06-25 08:55:00,81.5,76.0,30.14,SW,214,0.0,4.0,84,0.00,,,0.00,weatherlink.com 1.10,2013-06-25 13:55:00,
2013-06-25 09:10:00,82.8,76.0,30.14,SE,130,0.0,3.0,81,0.00,,,0.00,weatherlink.com 1.10,2013-06-25 14:10:00,
2013-06-25 09:25:00,82.5,75.0,30.14,NE,49,0.0,3.0,79,0.00,,,0.00,weatherlink.com 1.10,2013-06-25 14:25:00,
2013-06-25 09:40:00,85.0,76.0,30.14,West,264,2.0,2.0,75,0.00,,,0.00,weatherlink.com 1.10,2013-06-25 14:40:00,
2013-06-25 09:55:00,86.5,77.0,30.14,WSW,255,0.0,1.0,72,0.00,,,0.00,weatherlink.com 1.10,2013-06-25 14:55:00,
2013-06-25 10:10:00,85.0,75.0,30.14,East,80,2.0,3.0,72,0.00,,,0.00,weatherlink.com 1.10,2013-06-25 15:10:00,
2013-06-25 10:25:00,86.1,75.0,30.14,ESE,112,2.0,4.0,69,0.00,,,0.00,weatherlink.com 1.10,2013-06-25 15:25:00,
2013-06-25 10:40:00,85.6,74.0,30.13,East,82,0.0,4.0,68,0.00,,,0.00,weatherlink.com 1.10,2013-06-25 15:40:00,
2013-06-25 10:55:00,86.5,77.0,30.13,West,278,1.0,4.0,72,0.00,,,0.00,weatherlink.com 1.10,2013-06-25 15:55:00,
2013-06-25 11:10:00,87.7,74.0,30.13,ESE,122,3.0,4.0,64,0.00,,,0.00,weatherlink.com 1.10,2013-06-25 16:10:00,
2013-06-25 11:25:00,87.7,75.0,30.13,ESE,110,2.0,5.0,66,0.00,,,0.00,weatherlink.com 1.10,2013-06-25 16:25:00,
2013-06-25 11:40:00,87.4,75.0,30.13,East,93,2.0,4.0,66,0.00,,,0.00,weatherlink.com 1.10,2013-06-25 16:40:00,
2013-06-25 11:55:00,86.7,74.0,30.12,ENE,68,0.0,3.0,66,0.00,,,0.00,weatherlink.com 1.10,2013-06-25 16:55:00,
2013-06-25 12:10:00,88.8,75.0,30.11,East,86,3.0,5.0,63,0.00,,,0.00,weatherlink.com 1.10,2013-06-25 17:10:00,
2013-06-25 12:25:00,88.8,75.0,30.11,ESE,111,1.0,4.0,64,0.00,,,0.00,weatherlink.com 1.10,2013-06-25 17:25:00,
2013-06-25 12:40:00,90.0,74.0,30.11,ENE,77,4.0,6.0,60,0.00,,,0.00,weatherlink.com 1.10,2013-06-25 17:40:00,
2013-06-25 12:55:00,89.2,74.0,30.11,ESE,113,2.0,6.0,62,0.00,,,0.00,weatherlink.com 1.10,2013-06-25 17:55:00,
2013-06-25 13:10:00,89.3,75.0,30.10,NE,54,3.0,8.0,62,0.00,,,0.00,weatherlink.com 1.10,2013-06-25 18:10:00,
2013-06-25 13:25:00,90.5,76.0,30.10,ESE,103,1.0,10.0,62,0.00,,,0.00,weatherlink.com 1.10,2013-06-25 18:25:00,
2013-06-25 13:40:00,90.4,74.0,30.09,SE,127,0.0,6.0,58,0.00,,,0.00,weatherlink.com 1.10,2013-06-25 18:40:00,
2013-06-25 13:55:00,90.6,74.0,30.08,East,89,3.0,5.0,58,0.00,,,0.00,weatherlink.com 1.10,2013-06-25 18:55:00,
2013-06-25 14:25:00,88.2,75.0,30.07,SSE,163,4.0,7.0,65,0.00,,,0.00,weatherlink.com 1.10,2013-06-25 19:25:00,
2013-06-25 14:40:00,84.2,74.0,30.08,East,96,2.0,7.0,71,0.00,,,0.00,weatherlink.com 1.10,2013-06-25 19:40:00,
2013-06-25 14:55:00,82.2,73.0,30.09,SW,233,3.0,5.0,73,0.00,,,0.00,weatherlink.com 1.10,2013-06-25 19:55:00,
2013-06-25 15:10:00,81.3,73.0,30.08,East,97,1.0,3.0,76,0.00,,,0.00,weatherlink.com 1.10,2013-06-25 20:10:00,
2013-06-25 15:25:00,79.9,75.0,30.08,WNW,290,1.0,2.0,84,0.02,,,0.02,weatherlink.com 1.10,2013-06-25 20:25:00,
2013-06-25 15:40:00,80.5,76.0,30.07,ESE,120,0.0,1.0,87,0.02,,,0.02,weatherlink.com 1.10,2013-06-25 20:40:00,
2013-06-25 15:55:00,82.6,75.0,30.07,WSW,242,2.0,5.0,78,0.02,,,0.02,weatherlink.com 1.10,2013-06-25 20:55:00,
2013-06-25 16:10:00,85.5,76.0,30.06,NE,34,1.0,6.0,72,0.02,,,0.02,weatherlink.com 1.10,2013-06-25 21:10:00,
2013-06-25 16:25:00,86.6,76.0,30.06,SSW,213,0.0,4.0,70,0.00,,,0.02,weatherlink.com 1.10,2013-06-25 21:25:00,
2013-06-25 16:40:00,85.6,74.0,30.05,East,89,2.0,5.0,68,0.00,,,0.02,weatherlink.com 1.10,2013-06-25 21:40:00,
2013-06-25 16:55:00,85.1,74.0,30.04,ESE,112,2.0,4.0,70,0.00,,,0.02,weatherlink.com 1.10,2013-06-25 21:55:00,
2013-06-25 17:10:00,84.8,75.0,30.03,NE,43,0.0,3.0,73,0.00,,,0.02,weatherlink.com 1.10,2013-06-25 22:10:00,
2013-06-25 17:25:00,84.8,74.0,30.03,SE,131,2.0,3.0,71,0.00,,,0.02,weatherlink.com 1.10,2013-06-25 22:25:00,
2013-06-25 17:40:00,84.4,74.0,30.03,ENE,58,0.0,1.0,72,0.00,,,0.02,weatherlink.com 1.10,2013-06-25 22:40:00,
2013-06-25 17:55:00,83.4,76.0,30.03,East,92,0.0,1.0,77,0.00,,,0.02,weatherlink.com 1.10,2013-06-25 22:55:00,
2013-06-25 18:10:00,82.4,75.0,30.02,East,84,0.0,2.0,79,0.00,,,0.02,weatherlink.com 1.10,2013-06-25 23:10:00,
2013-06-25 18:25:00,82.1,76.0,30.03,East,84,0.0,0.0,81,0.00,,,0.02,weatherlink.com 1.10,2013-06-25 23:25:00,
2013-06-25 18:40:00,81.7,75.0,30.03,East,85,0.0,1.0,81,0.00,,,0.02,weatherlink.com 1.10,2013-06-25 23:40:00,
2013-06-25 18:55:00,81.4,76.0,30.04,East,85,0.0,0.0,83,0.00,,,0.02,weatherlink.com 1.10,2013-06-25 23:55:00,
2013-06-25 19:10:00,81.3,76.0,30.05,East,85,0.0,0.0,84,0.00,,,0.02,weatherlink.com 1.10,2013-06-26 00:10:00,
2013-06-25 19:25:00,80.9,76.0,30.04,East,84,0.0,1.0,85,0.00,,,0.02,weatherlink.com 1.10,2013-06-26 00:25:00,
2013-06-25 19:40:00,80.3,76.0,30.04,East,85,0.0,1.0,85,0.00,,,0.02,weatherlink.com 1.10,2013-06-26 00:40:00,
2013-06-25 19:55:00,79.8,76.0,30.05,East,84,0.0,0.0,87,0.00,,,0.02,weatherlink.com 1.10,2013-06-26 00:55:00,
2013-06-25 20:10:00,78.7,75.0,30.05,East,85,0.0,0.0,89,0.00,,,0.02,weatherlink.com 1.10,2013-06-26 01:10:00,
2013-06-25 20:25:00,77.9,75.0,30.05,East,85,0.0,0.0,91,0.00,,,0.02,weatherlink.com 1.10,2013-06-26 01:25:00,
2013-06-25 20:40:00,77.3,75.0,30.05,East,84,0.0,0.0,91,0.00,,,0.02,weatherlink.com 1.10,2013-06-26 01:40:00,
2013-06-25 20:55:00,76.8,75.0,30.05,East,85,0.0,0.0,93,0.00,,,0.02,weatherlink.com 1.10,2013-06-26 01:55:00,
2013-06-25 21:10:00,76.5,75.0,30.05,East,85,0.0,0.0,94,0.00,,,0.02,weatherlink.com 1.10,2013-06-26 02:10:00,
2013-06-25 21:25:00,76.3,75.0,30.04,East,84,0.0,1.0,94,0.00,,,0.02,weatherlink.com 1.10,2013-06-26 02:25:00,
2013-06-25 21:40:00,76.2,74.0,30.05,East,85,0.0,1.0,94,0.00,,,0.02,weatherlink.com 1.10,2013-06-26 02:40:00,
2013-06-25 21:55:00,76.0,75.0,30.06,East,85,0.0,1.0,95,0.00,,,0.02,weatherlink.com 1.10,2013-06-26 02:55:00,
2013-06-25 22:10:00,75.6,74.0,30.06,East,85,0.0,0.0,95,0.00,,,0.02,weatherlink.com 1.10,2013-06-26 03:10:00,
2013-06-25 22:26:00,75.4,74.0,30.06,East,85,0.0,0.0,96,0.00,,,0.02,weatherlink.com 1.10,2013-06-26 03:26:00,
2013-06-25 22:41:00,75.1,74.0,30.06,East,85,0.0,0.0,96,0.00,,,0.02,weatherlink.com 1.10,2013-06-26 03:41:00,
2013-06-25 22:56:00,75.0,74.0,30.05,East,84,0.0,1.0,96,0.00,,,0.02,weatherlink.com 1.10,2013-06-26 03:56:00,
2013-06-25 23:11:00,74.9,74.0,30.05,East,85,0.0,0.0,96,0.00,,,0.02,weatherlink.com 1.10,2013-06-26 04:11:00,
2013-06-25 23:26:00,74.9,74.0,30.05,East,86,0.0,0.0,96,0.00,,,0.02,weatherlink.com 1.10,2013-06-26 04:26:00,
2013-06-25 23:41:00,74.9,74.0,30.04,East,83,0.0,1.0,96,0.00,,,0.02,weatherlink.com 1.10,2013-06-26 04:41:00,
2013-06-25 23:56:00,74.8,74.0,30.04,East,83,0.0,1.0,96,0.00,,,0.02,weatherlink.com 1.10,2013-06-26 04:56:00,